User: anonymous
Location: West Cummington
(42.4920°N, 72.9680°W)
Time: 07:49:25
(UTC-04:00)
Language:

Cosmos 841 Rocket - Orbit

View from above orbital plane
View from above orbital plane
View from above satellite
View from above satellite

Ground track
Ground track

The orbit data is extracted from the following two-line orbital elements,

1 09023U 76069B   14272.77011714  .00000367  00000-0  12662-3 0  5044
2 09023 074.0425 126.1228 0017576 179.8294 180.2870 14.39196272  2176
Epoch (UTC): 29 September 2014 18:28:58
Eccentricity: 0.0017576
inclination: 74.0425°
perigee height: 748 km
apogee height: 774 km
right ascension of ascending node: 126.1228°
argument of perigee: 179.8294°
revolutions per day: 14.39196272
mean anomaly at epoch: 180.2870°
orbit number at epoch: 217

The dashed part of the orbit path shows where the satellite is in the earth's shadow,  

DLR